GREENECSD Weather Reports


time (UTC)temp
C
wind
direction
speed
KPH
gust
KPH
rain 1hr
cm
rain 24hr
cm
rain mn
cm
humidity
%
barometer
mb
20260506001513 17 206 1.6 4.8 0.00 0.03 0.03 78 1006.8
20260506000015 17 198 3.2 4.8 0.00 0.03 0.03 78 1006.7
20260505234515 17 213 4.8 6.4 0.00 0.03 0.03 79 1006.6
20260505233014 17 253 1.6 8.0 0.00 0.03 0.03 79 1006.6
20260505231513 17 184 3.2 4.8 0.00 0.03 0.03 81 1006.2
20260505230020 17 259 0.0 6.4 0.00 0.03 0.03 77 1006.5
20260505224516 18 194 3.2 9.7 0.00 0.03 0.03 74 1006.7
20260505223018 18 338 0.0 4.8 0.00 0.03 0.03 71 1006.1
20260505221520 19 202 3.2 8.0 0.00 0.03 0.03 69 1006.0
20260505220017 19 191 1.6 6.4 0.00 0.03 0.03 68 1005.7
20260505214518 19 212 4.8 9.7 0.00 0.03 0.03 69 1005.7
20260505213024 18 347 1.6 4.8 0.00 0.03 0.03 72 1005.6
20260505211522 17 174 1.6 6.4 0.00 0.03 0.03 75 1005.6
20260505210021 17 183 0.0 3.2 0.03 0.03 0.03 78 1005.7
20260505204518 16 209 3.2 8.0 0.03 0.03 0.03 79 1006.0
20260505203028 16 272 1.6 19.3 0.03 0.03 0.03 81 1006.2
20260505201522 16 331 6.4 29.0 0.03 0.03 0.03 80 1006.6
20260505200021 17 346 6.4 53.1 0.00 0.00 0.00 76 1006.6
20260505194516 23 221 14.5 25.7 0.00 0.00 0.00 39 1004.5
20260505193019 23 226 12.9 35.4 0.00 0.00 0.00 37 1003.9
20260505191522 23 231 16.1 30.6 0.00 0.00 0.00 41 1004.0
20260505190032 23 200 12.9 22.5 0.00 0.00 0.00 44 1003.9
20260505184524 23 184 9.7 25.7 0.00 0.00 0.00 43 1004.3
20260505183018 23 196 20.9 43.5 0.00 0.00 0.00 41 1004.7
20260505181525 24 236 11.3 32.2 0.00 0.00 0.00 43 1004.7
20260505180022 23 183 12.9 45.1 0.00 0.00 0.00 45 1005.1
20260505174524 23 283 14.5 33.8 0.00 0.00 0.00 44 1005.1
20260505173014 23 176 12.9 32.2 0.00 0.00 0.00 45 1005.1
20260505171523 23 234 14.5 32.2 0.00 0.00 0.00 45 1005.1
20260505170008 23 213 9.7 27.4 0.00 0.00 0.00 43 1004.7
20260505164509 23 235 17.7 33.8 0.00 0.00 0.00 42 1004.8
20260505163012 24 222 16.1 33.8 0.00 0.00 0.00 42 1005.1
20260505161518 25 278 16.1 38.6 0.00 0.00 0.00 42 1005.2
20260505153013 23 224 20.9 33.8 0.00 0.00 0.00 43 1005.5
20260505151520 22 212 17.7 41.8 0.00 0.00 0.00 43 1005.4
20260505124524 16 262 3.2 11.3 0.00 0.00 0.00 68 1006.9
20260505123023 16 251 3.2 11.3 0.00 0.00 0.00 66 1006.8
20260505121512 16 199 3.2 9.7 0.00 0.00 0.00 66 1006.7
20260505120043 16 289 4.8 14.5 0.00 0.00 0.00 65 1006.8
20260505114522 16 203 9.7 19.3 0.00 0.00 0.00 60 1006.7
20260505113021 16 226 8.0 12.9 0.00 0.00 0.00 58 1006.8
20260505111507 16 215 4.8 12.9 0.00 0.00 0.00 58 1006.8
20260505101525 14 290 1.6 6.4 0.00 0.00 0.00 61 1006.2
20260505100019 15 231 3.2 8.0 0.00 0.00 0.00 61 1005.9
20260505094516 15 304 1.6 14.5 0.00 0.00 0.00 59 1005.8
20260505093020 16 188 4.8 11.3 0.00 0.00 0.00 58 1005.7
20260505091528 15 235 4.8 9.7 0.00 0.00 0.00 59 1005.6
20260505090038 15 234 3.2 8.0 0.00 0.00 0.00 59 1005.5
20260505084512 15 240 4.8 12.9 0.00 0.00 0.00 58 1005.5
20260505083018 15 234 1.6 4.8 0.00 0.00 0.00 57 1005.5
20260505081522 15 202 3.2 4.8 0.00 0.00 0.00 56 1005.6
20260505080035 16 219 1.6 8.0 0.00 0.00 0.00 55 1005.5
20260505074524 16 193 1.6 8.0 0.00 0.00 0.00 55 1005.7
20260505073028 15 255 4.8 8.0 0.00 0.00 0.00 55 1005.7
20260505071520 15 216 6.4 12.9 0.00 0.00 0.00 54 1005.7
20260505070024 15 217 4.8 9.7 0.00 0.00 0.00 54 1005.7
20260505064538 15 220 6.4 11.3 0.00 0.00 0.00 54 1005.8
20260505063026 15 226 4.8 11.3 0.00 0.00 0.00 53 1005.7
20260505061530 15 200 4.8 12.9 0.00 0.00 0.00 53 1005.7
20260505060023 15 233 3.2 9.7 0.00 0.00 0.00 53 1005.7
20260505054542 15 268 1.6 8.0 0.00 0.00 0.00 53 1005.8
20260505053031 16 249 3.2 14.5 0.00 0.00 0.00 51 1005.8
20260505051517 16 155 4.8 11.3 0.00 0.00 0.00 51 1006.0
20260505041526 16 158 1.6 6.4 0.00 0.00 0.00 49 1005.8
20260505040020 17 253 3.2 11.3 0.00 0.00 0.00 48 1005.8
20260505034523 17 224 4.8 14.5 0.00 0.00 0.00 47 1005.8
20260505033025 17 231 3.2 14.5 0.00 0.00 0.00 46 1005.7
20260505031540 17 210 4.8 20.9 0.00 0.00 0.00 46 1005.7
20260505030028 17 193 8.0 17.7 0.00 0.00 0.00 45 1005.8
20260505024534 17 212 6.4 12.9 0.00 0.00 0.00 45 1005.9
20260505023028 17 274 3.2 19.3 0.00 0.00 0.00 44 1006.0
20260505021528 18 214 8.0 19.3 0.00 0.00 0.00 43 1005.9
20260505020032 18 224 6.4 11.3 0.00 0.00 0.00 42 1005.9
20260505014531 18 206 8.0 12.9 0.00 0.00 0.00 41 1005.9
20260505013024 18 241 6.4 17.7 0.00 0.00 0.00 41 1005.8
20260505011532 18 184 9.7 19.3 0.00 0.00 0.00 41 1005.8
20260505010028 18 190 3.2 11.3 0.00 0.00 0.00 40 1005.6
20260505004537 19 158 6.4 12.9 0.00 0.00 0.00 39 1005.5
20260505003023 19 210 8.0 16.1 0.00 0.00 0.00 38 1005.3